Lake Charles Regional, LA

4:52 AM CST on February 24, 2018 (GMT -0600)
Lake Charles Regional

Weather History for KLCH - May, 2015

Change the Weather History Date:

Wednesday, May 6, 2015

  Actual Average Record
Temperature  
Mean Temperature 75 °F 73 °F  
Max Temperature 84 °F 82 °F 93 °F (1908)
Min Temperature 66 °F 64 °F 46 °F (2013)
Degree Days  
Heating Degree Days 0 0  
Month to date heating degree days 0 0  
Since 1 July heating degree days 1543 1489  
Cooling Degree Days 10 8  
Month to date cooling degree days 48 46  
Year to date cooling degree days 307 254  
Growing Degree Days 25 (Base 50)    
Moisture  
Dew Point 66 °F    
Average Humidity 76    
Maximum Humidity 93    
Minimum Humidity 58    
Precipitation  
Precipitation 0.00 in 0.15 in 3.78 in (1935)
Month to date precipitation 0.70 0.84  
Year to date precipitation 28.57 16.52  
Snow  
Snow 0.00 in 0.00 in 0.00 in ()
Month to date snowfall 0.0 0.0  
Since 1 July snowfall T 0.1  
Snow Depth 0.00 in    
Sea Level Pressure  
Sea Level Pressure 30.03 in    
Wind  
Wind Speed 10 mph (SE)    
Max Wind Speed 20 mph    
Max Gust Speed 26 mph    
Visibility 10 miles    
Events      
T = Trace of Precipitation, MM = Missing Value Source: NWS Daily Summary

Daily Weather History Graph

Daily Weather History Graph

Search for Another Location

Airport or City:

Trip Planner

Search our weather history database for the weather conditions in past years. The results will help you decide how hot, cold, wet, or windy it might be!

Date:

Astronomy

May. 06, 2015 Rise Set
Actual Time 6:25 AM CDT 7:53 PM CDT
Civil Twilight 6:00 AM CDT 8:19 PM CDT
Nautical Twilight 5:29 AM CDT 8:50 PM CDT
Astronomical Twilight 4:57 AM CDT 9:22 PM CDT
Moon 10:24 PM CDT (5/6) 8:26 AM CDT (5/6)
Length of Visible Light 14h 19m
Length of Day
13h 27m
Waning Gibbous, 93% of the Moon is Illuminated
May 6
Waning Gibbous
May 11
Last Quarter
May 17
New
May 25
First Quarter
Jun 2
Full

Hourly Weather History & Observations

Time (CDT) Temp. Heat Index Dew Point Humidity Pressure Visibility Wind Dir Wind Speed Gust Speed Precip Events Conditions
12:53 AM 71.1 °F - 64.0 °F 78% 30.08 in 10.0 mi SE 9.2 mph - N/A   Clear
1:53 AM 69.1 °F - 64.0 °F 84% 30.06 in 10.0 mi ESE 6.9 mph - N/A   Clear
2:53 AM 68.0 °F - 64.0 °F 87% 30.04 in 10.0 mi ESE 5.8 mph - N/A   Clear
3:53 AM 66.9 °F - 64.0 °F 90% 30.04 in 10.0 mi East 5.8 mph - N/A   Clear
4:53 AM 66.9 °F - 64.0 °F 90% 30.02 in 10.0 mi East 8.1 mph - N/A   Clear
5:53 AM 66.9 °F - 64.0 °F 90% 30.04 in 10.0 mi East 6.9 mph - N/A   Clear
6:53 AM 66.2 °F - 64.4 °F 94% 30.02 in 9.0 mi East 6.9 mph - N/A   Scattered Clouds
7:53 AM 71.1 °F - 66.9 °F 87% 30.06 in 10.0 mi ESE 9.2 mph - N/A   Clear
8:53 AM 75.0 °F - 68.0 °F 79% 30.07 in 10.0 mi SE 11.5 mph - N/A   Partly Cloudy
9:18 AM 77.0 °F - 69.1 °F 76% 30.04 in 10.0 mi ESE 13.8 mph - N/A   Mostly Cloudy
9:30 AM 77.0 °F - 68.0 °F 74% 30.04 in 10.0 mi ESE 15.0 mph - N/A   Mostly Cloudy
9:44 AM 77.0 °F - 68.0 °F 74% 30.04 in 10.0 mi ESE 15.0 mph - N/A   Mostly Cloudy
9:53 AM 78.8 °F - 68.0 °F 69% 30.04 in 10.0 mi ESE 12.7 mph - N/A   Scattered Clouds
10:53 AM 79.0 °F - 66.9 °F 66% 30.06 in 10.0 mi SE 16.1 mph - N/A   Mostly Cloudy
11:53 AM 80.1 °F 82.3 °F 66.9 °F 64% 30.06 in 10.0 mi SE 13.8 mph 23.0 mph N/A   Partly Cloudy
12:53 PM 82.0 °F 84.1 °F 66.0 °F 58% 30.05 in 10.0 mi SSE 13.8 mph - N/A   Mostly Cloudy
1:53 PM 82.9 °F 85.4 °F 66.9 °F 58% 30.04 in 10.0 mi SSE 13.8 mph - N/A   Scattered Clouds
2:53 PM 82.9 °F 85.4 °F 66.9 °F 58% 30.02 in 10.0 mi South 10.4 mph 20.7 mph N/A   Clear
3:53 PM 82.9 °F 85.0 °F 66.0 °F 56% 30.00 in 10.0 mi SSE 16.1 mph 20.7 mph N/A   Clear
4:53 PM 81.0 °F 83.3 °F 66.9 °F 62% 30.00 in 10.0 mi SSE 13.8 mph 20.7 mph N/A   Scattered Clouds
5:53 PM 82.9 °F 85.4 °F 66.9 °F 58% 29.99 in 10.0 mi SE 13.8 mph - N/A   Scattered Clouds
6:53 PM 80.6 °F 82.7 °F 66.2 °F 61% 29.96 in 10.0 mi SE 12.7 mph - N/A   Clear
7:53 PM 75.9 °F - 66.0 °F 71% 29.98 in 10.0 mi SSE 8.1 mph - N/A   Clear
8:53 PM 73.9 °F - 66.0 °F 76% 29.99 in 10.0 mi SSE 8.1 mph - N/A   Clear
9:53 PM 72.0 °F - 66.9 °F 84% 30.00 in 10.0 mi SE 4.6 mph - N/A   Clear
10:53 PM 71.1 °F - 68.0 °F 90% 30.01 in 10.0 mi SSE 4.6 mph - N/A   Clear
11:53 PM 71.1 °F - 68.0 °F 90% 30.01 in 10.0 mi Calm Calm - N/A   Clear